Вернуться в каталог

FENGYUN 1C DEB

АктивенSSO
NORAD 37691·DEBRIS·🇨🇳 China

Запущен May 10, 1999 с Taiyuan Satellite Launch Center

Loading…

Ближайшие Пролёты (ближайшие 24 часа)

TLE

УстаревающийSource: Space-Track

Эпоха: Sep 10, 2026, 00:36 UTC

1 37691U 99025ELG 26253.02563361  .00020576  00000-0  22865-2 0  9990
2 37691  98.3563 165.7573 0251284  23.5229 337.7233 14.66899572896009

Отслеживайте FENGYUN 1C DEB в реальном времени с AllMySat

Download on the App Store